EW0608 Weather Reports


time (UTC)temp
C
wind
direction
speed
KPH
gust
KPH
rain 1hr
cm
rain 24hr
cm
rain mn
cm
humidity
%
barometer
mb
20260905214538 23 63 0.0 0.0 0.00 0.00 0.00 89 1009.8
20260905214338 23 63 0.0 0.0 0.00 0.00 0.00 89 1010.9
20260905213912 23 63 0.0 0.0 0.00 0.00 0.00 90 1010.9
20260905213342 23 63 0.0 1.6 0.00 0.00 0.00 90 1010.8
20260905213036 22 63 0.0 1.6 0.00 0.00 0.00 90 1009.7
20260905212836 23 63 0.0 1.6 0.00 0.00 0.00 91 1010.8
20260905212350 23 63 0.0 0.0 0.00 0.00 0.00 91 1010.6
20260905211522 22 63 0.0 0.0 0.00 0.00 0.00 91 1009.4
20260905210019 22 63 0.0 1.6 0.00 0.00 0.00 90 1009.3
20260905204519 22 63 0.0 1.6 0.00 0.00 0.00 90 1009.6
20260905203018 22 132 0.0 1.6 0.00 0.00 0.00 89 1009.9
20260905201519 23 80 1.6 4.8 0.00 0.00 0.00 87 1009.9
20260905200024 23 11 1.6 6.4 0.00 0.00 0.00 83 1010.1
20260905194517 26 88 0.0 1.6 0.00 0.00 0.00 84 1009.8
20260905193015 26 231 0.0 0.0 0.00 0.00 0.00 81 1009.6
20260905191513 26 80 0.0 0.0 0.00 0.00 0.00 87 1009.8
20260905190010 25 246 0.0 0.0 0.00 0.00 0.00 91 1010.0
20260905184519 25 246 0.0 0.0 0.00 0.00 0.00 89 1010.2
20260905183007 25 246 0.0 0.0 0.00 0.00 0.00 92 1010.2
20260905181505 24 246 0.0 0.0 0.00 0.00 0.00 90 1010.4
20260905180007 25 246 0.0 0.0 0.00 0.00 0.00 89 1010.6
20260905174502 24 229 0.0 0.0 0.00 0.00 0.00 92 1010.7
20260905173059 23 229 0.0 0.0 0.00 0.00 0.00 93 1010.9
20260905171557 22 229 0.0 0.0 0.00 0.00 0.00 95 1011.0
20260905170057 21 229 0.0 0.0 0.00 0.00 0.00 94 1011.2
20260905164553 21 229 0.0 0.0 0.00 0.00 0.00 94 1011.4
20260905163051 21 229 0.0 0.0 0.00 0.00 0.00 94 1011.6
20260905161551 21 229 0.0 0.0 0.00 0.00 0.00 95 1011.8
20260905160055 21 226 0.0 0.0 0.00 0.00 0.00 95 1011.8
20260905154551 21 226 0.0 0.0 0.00 0.00 0.00 95 1011.9
20260905153104 21 226 0.0 0.0 0.00 0.00 0.00 95 1012.0
20260905151548 21 227 0.0 0.0 0.00 0.00 0.00 95 1012.1
20260905150049 20 227 0.0 0.0 0.00 0.00 0.00 95 1012.3
20260905144544 20 226 0.0 0.0 0.00 0.00 0.00 95 1012.4
20260905143843 20 226 0.0 0.0 0.00 0.00 0.00 95 1013.4
20260905143337 20 227 0.0 0.0 0.00 0.00 0.00 95 1013.3
20260905143049 20 226 0.0 0.0 0.00 0.00 0.00 95 1012.3
20260905142849 20 227 0.0 0.0 0.00 0.00 0.00 95 1013.3
20260905142341 20 227 0.0 0.0 0.00 0.00 0.00 95 1013.3
20260905141914 20 226 0.0 1.6 0.00 0.00 0.00 95 1013.4
20260905141557 20 226 0.0 1.6 0.00 0.00 0.00 95 1012.3
20260905141346 20 226 0.0 1.6 0.00 0.00 0.00 95 1013.3
20260905140839 20 227 0.0 0.0 0.00 0.00 0.00 95 1013.4
20260905140413 20 227 0.0 0.0 0.00 0.00 0.00 95 1013.4
20260905140042 20 226 0.0 0.0 0.00 0.00 0.00 95 1012.4
20260905135840 20 226 0.0 0.0 0.00 0.00 0.00 95 1013.4
20260905135354 20 227 0.0 0.0 0.00 0.00 0.00 95 1013.3
20260905134846 20 227 0.0 0.0 0.00 0.00 0.00 95 1013.3
20260905134540 20 227 0.0 0.0 0.00 0.00 0.00 95 1012.3
20260905134339 20 227 0.0 0.0 0.00 0.00 0.00 95 1013.3
20260905133851 20 226 0.0 1.6 0.00 0.00 0.00 95 1013.2
20260905133348 20 227 0.0 1.6 0.00 0.00 0.00 95 1013.1
20260905133158 20 226 0.0 0.0 0.00 0.00 0.00 95 1012.0
20260905133058 20 227 0.0 0.0 0.00 0.00 0.00 95 1013.0
20260905131616 20 227 0.0 0.0 0.00 0.00 0.00 95 1011.4
20260905130059 19 227 0.0 0.0 0.00 0.00 0.00 95 1011.5
20260905124559 19 226 0.0 0.0 0.00 0.00 0.00 95 1012.0
20260905123100 18 226 0.0 0.0 0.00 0.00 0.00 95 1011.9
20260905121557 18 226 0.0 0.0 0.00 0.00 0.00 95 1011.7
20260905120056 18 226 0.0 1.6 0.00 0.00 0.00 95 1011.5
20260905114556 18 211 0.0 0.0 0.00 0.00 0.00 95 1011.2
20260905113054 18 211 0.0 0.0 0.00 0.00 0.00 95 1011.3
20260905111556 18 211 0.0 0.0 0.00 0.00 0.00 95 1011.2
20260905110053 18 211 0.0 0.0 0.00 0.00 0.00 95 1011.0
20260905104556 18 211 0.0 0.0 0.00 0.00 0.00 95 1010.8
20260905103054 18 211 0.0 1.6 0.00 0.00 0.00 95 1011.1
20260905101550 18 227 0.0 0.0 0.00 0.00 0.00 95 1010.7
20260905100108 18 227 0.0 0.0 0.00 0.00 0.00 95 1010.6
20260905094550 18 227 0.0 0.0 0.00 0.00 0.00 95 1010.6
20260905093047 18 227 0.0 0.0 0.00 0.00 0.00 95 1010.6
20260905091546 18 227 0.0 0.0 0.00 0.00 0.00 95 1010.5
20260905090103 18 227 0.0 0.0 0.00 0.00 0.00 95 1010.5
20260905084545 19 227 0.0 0.0 0.00 0.00 0.00 95 1010.6
20260905083049 19 227 0.0 0.0 0.00 0.00 0.00 95 1010.6
20260905081547 19 227 0.0 0.0 0.00 0.00 0.00 95 1010.6
20260905080046 19 227 0.0 0.0 0.00 0.00 0.00 95 1010.8
20260905074539 19 227 0.0 0.0 0.00 0.00 0.00 95 1010.8
20260905073038 19 227 0.0 0.0 0.00 0.00 0.00 95 1010.9
20260905071539 19 227 0.0 0.0 0.00 0.00 0.00 95 1011.0
20260905070033 19 227 0.0 0.0 0.00 0.00 0.00 95 1011.3
20260905064532 19 227 0.0 0.0 0.00 0.00 0.00 95 1011.5
20260905063029 20 227 0.0 0.0 0.00 0.00 0.00 95 1011.7
20260905061527 20 227 0.0 0.0 0.00 0.00 0.00 95 1011.9
20260905060032 20 227 0.0 0.0 0.00 0.00 0.00 95 1012.2
20260905054545 20 227 0.0 0.0 0.00 0.00 0.00 95 1012.3
20260905054343 20 227 0.0 0.0 0.00 0.00 0.00 95 1013.4
20260905053916 20 227 0.0 0.0 0.00 0.00 0.00 95 1013.5
20260905053348 20 227 0.0 0.0 0.00 0.00 0.00 95 1013.6
20260905053041 20 227 0.0 0.0 0.00 0.00 0.00 95 1012.5
20260905052839 20 227 0.0 0.0 0.00 0.00 0.00 95 1013.7
20260905052353 20 227 0.0 0.0 0.00 0.00 0.00 95 1013.6
20260905051847 20 227 0.0 0.0 0.00 0.00 0.00 95 1013.5
20260905051542 20 227 0.0 0.0 0.00 0.00 0.00 95 1012.5
20260905051338 20 227 0.0 0.0 0.00 0.00 0.00 95 1013.5
20260905050852 20 227 0.0 0.0 0.00 0.00 0.00 95 1013.8
20260905050346 20 227 0.0 0.0 0.00 0.00 0.00 95 1013.8
20260905050018 20 227 0.0 0.0 0.00 0.00 0.00 95 1012.7
20260905045916 20 227 0.0 0.0 0.00 0.00 0.00 95 1013.9
20260905045346 20 227 0.0 0.0 0.00 0.00 0.00 95 1014.0
20260905044843 20 227 0.0 0.0 0.00 0.00 0.00 95 1014.1
20260905044557 20 227 0.0 0.0 0.00 0.00 0.00 95 1013.0
20260905044356 20 227 0.0 0.0 0.00 0.00 0.00 95 1014.0
20260905043848 20 227 0.0 0.0 0.00 0.00 0.00 95 1014.0
20260905043340 20 227 0.0 0.0 0.00 0.00 0.00 95 1014.0
20260905043053 20 227 0.0 0.0 0.00 0.00 0.00 95 1012.8
20260905042852 20 227 0.0 0.0 0.00 0.00 0.00 95 1014.0
20260905042405 20 227 0.0 0.0 0.00 0.00 0.00 95 1014.1
20260905041836 20 227 0.0 0.0 0.00 0.00 0.00 95 1014.1
20260905041551 20 227 0.0 0.0 0.00 0.00 0.00 95 1012.9
20260905041349 20 227 0.0 0.0 0.00 0.00 0.00 95 1014.0
20260905040840 21 227 0.0 0.0 0.00 0.00 0.00 95 1014.1
20260905040415 21 227 0.0 0.0 0.00 0.00 0.00 95 1014.2
20260905040006 20 227 0.0 0.0 0.00 0.00 0.00 95 1013.0
20260905035902 21 227 0.0 0.0 0.00 0.00 0.00 95 1014.2
20260905035354 21 227 0.0 0.0 0.00 0.00 0.00 95 1014.1
20260905034847 21 227 0.0 0.0 0.00 0.00 0.00 95 1014.1
20260905034542 20 227 0.0 0.0 0.00 0.00 0.00 95 1012.9
20260905034341 21 227 0.0 0.0 0.00 0.00 0.00 95 1014.1
20260905033853 21 227 0.0 0.0 0.00 0.00 0.00 95 1014.0
20260905033406 21 227 0.0 0.0 0.00 0.00 0.00 95 1014.1
20260905033038 20 227 0.0 0.0 0.00 0.00 0.00 95 1012.9
20260905032837 21 227 0.0 0.0 0.00 0.00 0.00 95 1014.0
20260905032349 21 227 0.0 0.0 0.00 0.00 0.00 95 1013.9
20260905031843 21 227 0.0 0.0 0.00 0.00 0.00 95 1014.0
20260905031609 20 227 0.0 0.0 0.00 0.00 0.00 95 1012.9
20260905031355 21 227 0.0 0.0 0.00 0.00 0.00 95 1014.1
20260905030907 21 227 0.0 0.0 0.00 0.00 0.00 95 1013.8
20260905030357 21 227 0.0 0.0 0.00 0.00 0.00 95 1014.0
20260905030048 20 227 0.0 0.0 0.00 0.00 0.00 95 1012.9
20260905025847 21 227 0.0 0.0 0.00 0.00 0.00 95 1013.9
20260905025359 21 227 0.0 0.0 0.00 0.00 0.00 95 1013.8
20260905024913 21 227 0.0 0.0 0.00 0.00 0.00 95 1013.9
20260905024543 21 227 0.0 0.0 0.00 0.00 0.00 95 1012.8
20260905024341 21 227 0.0 0.0 0.00 0.00 0.00 95 1013.9
20260905023855 21 227 0.0 0.0 0.00 0.00 0.00 95 1013.9
20260905023427 21 227 0.0 0.0 0.00 0.00 0.00 95 1013.9
20260905023056 21 227 0.0 0.0 0.00 0.00 0.00 95 1012.7
20260905022855 21 227 0.0 0.0 0.00 0.00 0.00 95 1013.8
20260905022347 21 227 0.0 0.0 0.00 0.00 0.00 95 1013.8
20260905021900 21 227 0.0 0.0 0.00 0.00 0.00 95 1013.5
20260905021556 21 227 0.0 0.0 0.00 0.00 0.00 95 1012.4
20260905021352 21 227 0.0 0.0 0.00 0.00 0.00 95 1013.5
20260905020843 21 227 0.0 0.0 0.00 0.00 0.00 95 1013.5
20260905020358 21 227 0.0 0.0 0.00 0.00 0.00 95 1013.5
20260905020046 21 227 0.0 0.0 0.00 0.00 0.00 95 1012.3
20260905015846 21 227 0.0 0.0 0.00 0.00 0.00 95 1013.4
20260905015338 21 227 0.0 0.0 0.00 0.00 0.00 95 1013.3
20260905014911 21 227 0.0 0.0 0.00 0.00 0.00 95 1013.1
20260905014506 21 227 0.0 0.0 0.00 0.00 0.00 95 1012.0
20260905014403 21 227 0.0 0.0 0.00 0.00 0.00 95 1013.1
20260905013854 21 227 0.0 0.0 0.00 0.00 0.00 95 1013.1
20260905013346 21 227 0.0 0.0 0.00 0.00 0.00 95 1013.2
20260905013103 21 227 0.0 0.0 0.00 0.00 0.00 95 1012.1
20260905012859 21 227 0.0 0.0 0.00 0.00 0.00 95 1013.2
20260905012351 21 227 0.0 0.0 0.00 0.00 0.00 95 1013.2
20260905011844 21 227 0.0 0.0 0.00 0.00 0.00 95 1013.1
20260905011517 21 227 0.0 0.0 0.00 0.00 0.00 95 1011.9
20260905011416 21 227 0.0 0.0 0.00 0.00 0.00 95 1013.1
20260905010907 21 227 0.0 0.0 0.00 0.00 0.00 95 1013.1
20260905010400 21 227 0.0 0.0 0.00 0.00 0.00 95 1013.1
20260905010027 21 227 0.0 0.0 0.00 0.00 0.00 95 1011.8
20260905004835 22 227 0.0 0.0 0.00 0.00 0.00 95 1013.0
20260905004549 21 227 0.0 0.0 0.00 0.00 0.00 95 1011.8
20260905004348 22 227 0.0 0.0 0.00 0.00 0.00 95 1013.0
20260905003842 22 227 526.3 526.3 0.00 0.00 0.00 95 1012.6
20260905003355 22 227 0.0 0.0 0.00 0.00 0.00 95 1012.9
20260905003050 21 227 0.0 0.0 0.00 0.00 0.00 95 1011.8
20260905002848 22 227 0.0 0.0 0.00 0.00 0.00 95 1013.0
20260905002341 22 227 0.0 0.0 0.00 0.00 0.00 95 1012.9
20260905001506 21 227 0.0 0.0 0.00 0.00 0.00 95 1011.7
20260905001403 22 227 0.0 0.0 0.00 0.00 0.00 95 1012.8
20260905000855 22 227 0.0 0.0 0.00 0.00 0.00 94 1012.7
20260905000409 22 227 0.0 0.0 0.00 0.00 0.00 94 1012.7
20260905000050 22 227 0.0 0.0 0.00 0.00 0.00 95 1011.4
20260904235836 22 227 0.0 0.0 0.00 0.00 0.00 95 1012.8
20260904235348 22 227 0.0 0.0 0.00 0.00 0.00 95 1012.7
20260904234841 22 227 0.0 0.0 0.00 0.00 0.00 94 1012.8
20260904234555 22 227 0.0 0.0 0.00 0.00 0.00 94 1011.6
20260904234355 22 227 0.0 0.0 0.00 0.00 0.00 94 1012.8
20260904233847 22 227 0.0 0.0 0.00 0.00 0.00 94 1012.8
20260904233340 22 227 0.0 0.0 0.00 0.00 0.00 95 1012.6
20260904233035 22 227 0.0 0.0 0.00 0.00 0.00 94 1011.4
20260904232934 22 227 0.0 0.0 0.00 0.00 0.00 94 1012.7
20260904232342 22 227 0.0 0.0 0.00 0.00 0.00 94 1012.7
20260904231855 22 227 0.0 0.0 0.00 0.00 0.00 94 1012.8
20260904231551 22 227 0.0 0.0 0.00 0.00 0.00 94 1011.7
20260904231347 22 227 0.0 0.0 0.00 0.00 0.00 94 1012.9
20260904230841 23 227 0.0 0.0 0.00 0.00 0.00 94 1012.8
20260904230355 23 227 0.0 0.0 0.00 0.00 0.00 94 1012.9
20260904230101 22 227 0.0 0.0 0.00 0.00 0.00 94 1011.7
20260904225844 23 227 0.0 0.0 0.00 0.00 0.00 94 1012.9
20260904225357 23 227 0.0 0.0 0.00 0.00 0.00 94 1012.8
20260904224848 23 227 0.0 0.0 0.00 0.00 0.00 94 1013.2
20260904224501 22 227 0.0 0.0 0.00 0.00 0.00 94 1011.7
20260904224340 23 227 0.0 0.0 0.00 0.00 0.00 94 1012.9
20260904223851 23 227 0.0 0.0 0.00 0.00 0.00 94 1013.0
20260904223344 23 227 0.0 0.0 0.00 0.00 0.00 94 1013.2
20260904223105 23 227 0.0 0.0 0.00 0.00 0.00 94 1011.9
20260904222859 23 227 0.0 0.0 0.00 0.00 0.00 94 1013.2
20260904222349 23 227 0.0 0.0 0.00 0.00 0.00 94 1013.4
20260904221902 23 227 0.0 0.0 0.00 0.00 0.00 94 1013.5
20260904221514 23 227 0.0 0.0 0.00 0.00 0.00 94 1012.2
20260904221414 23 227 0.0 0.0 0.00 0.00 0.00 94 1013.4
20260904220846 23 227 0.0 0.0 0.00 0.00 0.00 94 1013.3
20260904220340 23 227 0.0 0.0 0.00 0.00 0.00 94 1013.3
20260904220009 23 227 0.0 0.0 0.00 0.00 0.00 94 1012.0
20260904215909 23 227 0.0 0.0 0.00 0.00 0.00 94 1013.2
20260904215400 23 227 0.0 0.0 0.00 0.00 0.00 94 1013.3
20260904214852 23 227 0.0 0.0 0.00 0.00 0.00 94 1013.2